Location: Guadanolo
(41.9167°N, 12.9333°E)
Time: 04:40:35
(UTC+00:00)

FALCON 9 R/B - Pass Details

Date: 16 September 2019
Orbit: 284 x 10171 km, 34.5° (Epoch: 17 October)

Event Time Altitude Azimuth Distance (km) Brightness Sun altitude
Rises 18:42:31 0° 268° (W) 15,043 9.9 -16.4°
Reaches altitude 10° 18:59:52 10° 268° (W) 13,015 9.2 -19.5°
Maximum altitude 19:47:05 66° 199° (SSW) 3,439 5.1 -27.3°
Enters shadow 19:52:47 42° 136° (SE) 2,995 4.4 -28.2°
